Bow Valley, Alberta

7:27 PM MDT on March 29, 2017 (GMT -0600)
Bow Valley

Weather History for CWXA - April, 2013

Change the Weather History Date:

Monday, April 29, 2013

  Actual Average Record
Temperature  
Mean Temperature 32 °F -  
Max Temperature 39 °F - - ()
Min Temperature 26 °F - - ()
Degree Days  
Heating Degree Days 32    
Moisture  
Dew Point 25 °F    
Average Humidity 75    
Maximum Humidity 95    
Minimum Humidity 33    
Precipitation  
Precipitation 0.24 in - - ()
Sea Level Pressure  
Sea Level Pressure 29.60 in    
Wind  
Wind Speed 4 mph ()    
Max Wind Speed 9 mph    
Max Gust Speed 21 mph    
T = Trace of Precipitation, MM = Missing Value Source: Averaged Metar Reports

Daily Weather History Graph

Daily Weather History Graph

Search for Another Location

Airport or City:

Trip Planner

Search our weather history database for the weather conditions in past years. The results will help you decide how hot, cold, wet, or windy it might be!

Date:

Astronomy

Apr. 29, 2013 Rise Set
Actual Time 6:16 AM MDT 8:59 PM MDT
Civil Twilight 5:39 AM MDT 9:37 PM MDT
Nautical Twilight 4:51 AM MDT 10:25 PM MDT
Astronomical Twilight 3:53 AM MDT 11:24 PM MDT
Moon 12:44 AM MDT (4/29) 9:30 AM MDT (4/29)
Length of Visible Light 15h 58m
Length of Day
14h 43m
Waning Gibbous, 79% of the Moon is Illuminated
Apr 29
Waning Gibbous
May 2
Last Quarter
May 9
New
May 17
First Quarter
May 24
Full

Hourly Weather History & Observations

Time (MDT) Temp. Windchill Dew Point Humidity Pressure Visibility Wind Dir Wind Speed Gust Speed Precip Events Conditions
12:00 AM 41 °F - 22 °F 33% 29.55 in - SW 5.8 mph - -  
12:00 AM 40.8 °F 36.9 °F 21.9 °F 47% 29.55 in - SW 5.8 mph - N/A   Unknown
1:00 AM 35.4 °F - 19.8 °F 53% 29.54 in - West 1.2 mph - N/A   Unknown
2:00 AM 30.7 °F - 19.9 °F 64% 29.55 in - WSW 2.3 mph - N/A   Unknown
3:00 AM 34.3 °F - 18.9 °F 53% 29.52 in - WSW 2.3 mph - N/A   Unknown
5:00 AM 36.3 °F - 21.7 °F 56% 29.47 in - SSW 2.3 mph - N/A   Unknown
6:00 AM 33 °F - 23 °F 57% 29.44 in - SW 2.3 mph - -  
6:00 AM 33.1 °F - 23.4 °F 67% 29.44 in - SW 2.3 mph - N/A   Unknown
7:00 AM 36.5 °F 32.7 °F 25.5 °F 64% 29.42 in - WSW 4.6 mph - N/A   Unknown
8:00 AM 35.4 °F 29.0 °F 25.5 °F 67% 29.42 in - WSW 8.1 mph - N/A   Unknown
9:00 AM 34.5 °F 27.3 °F 25.9 °F 71% 29.43 in - WSW 9.2 mph 20.7 mph N/A   Unknown
10:00 AM 36.5 °F 31.0 °F 23.7 °F 60% 29.44 in - SW 6.9 mph - N/A   Unknown
11:00 AM 37.0 °F 32.4 °F 22.6 °F 56% 29.47 in - NE 5.8 mph - N/A   Unknown
12:00 PM 31 °F - 28 °F 86% 29.55 in - NE 6.9 mph - -  
12:00 PM 30.9 °F 24.3 °F 28.4 °F 90% 29.55 in - NE 6.9 mph - N/A   Unknown
1:00 PM 29.5 °F 24.5 °F 28.2 °F 95% 29.60 in - NE 4.6 mph - 0.06 in   Unknown
2:00 PM 29.8 °F - 28.0 °F 93% 29.64 in - SSW 1.2 mph - 0.01 in   Unknown
3:00 PM 30.2 °F - 28.6 °F 94% 29.67 in - SSE 2.3 mph - 0.09 in   Unknown
4:00 PM 29.5 °F 24.5 °F 27.7 °F 93% 29.68 in - SE 4.6 mph - 0.05 in   Unknown
5:00 PM 30.4 °F - 27.3 °F 88% 29.71 in - ENE 2.3 mph - 0.02 in   Unknown
6:00 PM 29 °F - 28 °F 92% 29.74 in - ESE 2.3 mph - -  
6:00 PM 29.5 °F - 27.5 °F 92% 29.74 in - ESE 2.3 mph - 0.01 in   Unknown
7:00 PM 29.1 °F 25.4 °F 27.3 °F 93% 29.78 in - ESE 3.5 mph - 0.01 in   Unknown
8:00 PM 28.2 °F 24.4 °F 24.4 °F 86% 29.82 in - NE 3.5 mph - 0.02 in   Unknown
9:00 PM 27.1 °F - 25.2 °F 92% 29.83 in - SE 2.3 mph - N/A   Unknown
10:00 PM 26.8 °F - 25.5 °F 95% 29.86 in - Calm Calm - N/A   Unknown
11:00 PM 26.8 °F - 25.5 °F 95% 29.90 in - ESE 1.2 mph - 0.03 in   Unknown